Location: G�yn�k
(36.6721°N, 30.5542°E)
Time: 09:13:18
(UTC+00:00)

STARLINK-1033 - Pass Details

Date: 07 June 2020
Orbit: 548 x 551 km, 53.0° (Epoch: 06 July)

Event Time Altitude Azimuth Distance (km) Brightness Sun altitude
Exits shadow 00:04:26 - 124° (ESE) 2,036 6.5 -23.4°
Enters shadow 01:04:25 -70° 231° (SW) 12,529 10.4 -15.9°
Maximum altitude 01:43:27 71° 135° (SE) 580 3.7 -10.1°
